Weather History for Lakehurst NAS, NJ

Change the Weather History Date:

Thursday, March 20, 2014

  Actual Average Record
Temperature  
Mean Temperature 48 °F -  
Max Temperature 54 °F 50 °F 57 °F (2012)
Min Temperature 42 °F 35 °F 29 °F (2001)
Degree Days  
Heating Degree Days 17    
Moisture  
Dew Point 34 °F    
Average Humidity 68    
Maximum Humidity 100    
Minimum Humidity 31    
Precipitation  
Precipitation 0.03 in - - ()
Sea Level Pressure  
Sea Level Pressure 29.80 in    
Wind  
Wind Speed 8 mph (West)    
Max Wind Speed 21 mph    
Max Gust Speed 31 mph    
Averages and records for this station are not official NWS values.
T = Trace of Precipitation, MM = Missing Value Source: NWS Daily Summary

Daily Weather History Graph

Daily Weather History Graph

Search for Another Location

Airport:

Trip Planner

Search our weather history database for the weather conditions in past years. The results will help you decide how hot, cold, wet, or windy it might be!

Date:

Astronomy

Mar. 20, 2014 Rise Set
Actual Time 7:00 AM EDT 7:09 PM EDT
Civil Twilight 6:33 AM EDT 7:36 PM EDT
Nautical Twilight 6:02 AM EDT 8:08 PM EDT
Astronomical Twilight 5:30 AM EDT 8:40 PM EDT
Moon 11:26 PM EDT (3/20) 9:05 AM EDT (3/20)
Length of Visible Light 13h 02m
Length of Day
12h 08m
Waning Gibbous, 84% of the Moon is Illuminated
Mar 20
Waning Gibbous
Mar 23
Last Quarter
Mar 30
New
Apr 7
First Quarter
Apr 15
Full

Hourly Weather History & Observations

Time (EDT) Temp. Windchill Dew Point Humidity Pressure Visibility Wind Dir Wind Speed Gust Speed Precip Events Conditions
12:25 AM 48.2 °F - - N/A% 29.80 in - Calm Calm - 0.03 in   Overcast
12:51 AM 46.4 °F - - N/A% 29.79 in - Calm Calm - 0.03 in   Overcast
1:00 AM 46.9 °F - - N/A% 29.79 in - West 3.5 mph - 0.03 in   Overcast
3:00 AM 45.0 °F 40.1 °F - N/A% 29.76 in - WNW 9.2 mph 20.7 mph N/A   Overcast
3:19 AM 44.6 °F 38.1 °F - N/A% 29.76 in - WNW 13.8 mph 19.6 mph N/A   Overcast
4:00 AM 43.0 °F 36.8 °F - N/A% 29.75 in - WNW 11.5 mph - N/A   Overcast
5:00 AM 43.0 °F 37.7 °F - N/A% 29.77 in - WNW 9.2 mph - N/A   Overcast
6:00 AM 43.0 °F 38.2 °F - N/A% 29.77 in - West 8.1 mph - N/A   Overcast
6:28 AM 42.8 °F 38.6 °F - N/A% 29.78 in - West 6.9 mph - N/A   Overcast
7:00 AM 43.0 °F 38.2 °F 43.0 °F 100% 29.79 in - West 8.1 mph - N/A   Overcast
8:00 AM 43.0 °F 37.2 °F 43.0 °F 100% 29.80 in - West 10.4 mph 19.6 mph N/A   Overcast
8:10 AM 42.8 °F 36.6 °F 42.8 °F 100% 29.80 in - West 11.5 mph - N/A   Overcast
9:00 AM 44.1 °F 38.6 °F 44.1 °F 100% 29.82 in - West 10.4 mph - N/A   Overcast
9:57 AM 46.4 °F 41.5 °F 42.8 °F 87% 29.83 in - West 10.4 mph - N/A   Overcast
10:38 AM 48.2 °F - 39.2 °F 71% 29.82 in - WNW 13.8 mph 20.7 mph N/A   Scattered Clouds
2:00 PM 54.0 °F - 32.0 °F 43% 29.78 in - WNW 16.1 mph 27.6 mph N/A   Mostly Cloudy
5:00 PM 54.0 °F - 24.1 °F 31% 29.79 in - West 20.7 mph 29.9 mph N/A   Mostly Cloudy
6:00 PM 51.1 °F - 23.0 °F 33% 29.82 in - WNW 20.7 mph 31.1 mph N/A   Clear
7:00 PM 48.0 °F - 21.9 °F 36% 29.85 in - WNW 20.7 mph 26.5 mph N/A   Clear
8:00 PM 45.0 °F 39.3 °F 23.0 °F 42% 29.88 in - WNW 11.5 mph - N/A   Clear